Location: Krakow
(50.0830°N, 19.9170°E)
Time: 13:06:08
(UTC+01:00)

Tiros 1 - Visible Passes

Search period start: 15 March 2026 00:00
Search period end: 25 March 2026 00:00
Orbit: 618 x 650 km, 48.4° (Epoch: 14 March)

Date Brightness Start Highest point End Pass type
(mag) Time Alt. Az. Time Alt. Az. Time Alt. Az.
15 Mar 8.1 03:15:38 35° SE 03:15:38 35° SE 03:18:34 10° ESE visible
15 Mar 8.6 04:53:01 14° WSW 04:55:16 20° SW 04:58:36 10° S visible
16 Mar 8.2 03:36:39 31° S 03:36:39 31° S 03:39:42 10° SE visible
16 Mar 9.1 05:15:15 10° WSW 05:16:21 11° SW 05:17:28 10° SSW visible
17 Mar 8.6 03:57:52 21° SSW 03:57:52 21° SSW 04:00:22 10° SSE visible
18 Mar 9.2 04:19:14 12° SSW 04:19:14 12° SSW 04:20:03 10° SSW visible
21 Mar 8.8 19:31:42 10° S 19:33:46 17° SSE 19:33:46 17° SSE visible
22 Mar 8.2 19:52:01 10° SSW 19:55:22 28° SSE 19:55:22 28° SSE visible
23 Mar 8.9 18:33:37 10° S 18:36:21 15° SE 18:39:04 10° ESE visible
23 Mar 7.7 20:12:57 10° SW 20:16:45 41° S 20:16:45 41° S visible
24 Mar 8.3 18:53:37 10° SSW 18:57:29 26° SSE 19:00:32 14° E visible
24 Mar 7.6 20:34:13 10° WSW 20:37:56 49° SSW 20:37:56 49° SSW visible
